| time (UTC) | temp F | wind direction | speed MPH | gust MPH | rain 1hr in | rain 24hr in | rain mn in | humidity % | barometer mb |
| 20260901173052 | 77 | 14 | 2.0 | 4.0 | 0.00 | 0.00 | 0.00 | 46 | 1018.2 |
| 20260901171555 | 78 | 13 | 2.0 | 5.0 | 0.00 | 0.00 | 0.00 | 45 | 1018.2 |
| 20260901170051 | 78 | 346 | 2.0 | 6.0 | 0.00 | 0.00 | 0.00 | 44 | 1018.2 |
| 20260901164551 | 79 | 340 | 3.0 | 6.0 | 0.00 | 0.00 | 0.00 | 42 | 1018.4 |
| 20260901163047 | 80 | 5 | 1.0 | 4.0 | 0.00 | 0.00 | 0.00 | 40 | 1018.4 |
| 20260901161547 | 80 | 313 | 3.0 | 6.0 | 0.00 | 0.00 | 0.00 | 41 | 1018.5 |
| 20260901160046 | 81 | 13 | 4.0 | 7.0 | 0.00 | 0.00 | 0.00 | 39 | 1018.5 |
| 20260901154544 | 81 | 14 | 3.0 | 6.0 | 0.00 | 0.00 | 0.00 | 38 | 1018.7 |
| 20260901153045 | 82 | 53 | 3.0 | 6.0 | 0.00 | 0.00 | 0.00 | 38 | 1018.6 |
| 20260901151543 | 83 | 348 | 3.0 | 8.0 | 0.00 | 0.00 | 0.00 | 38 | 1018.6 |
| 20260901150043 | 82 | 314 | 4.0 | 8.0 | 0.00 | 0.00 | 0.00 | 37 | 1018.8 |
| 20260901144541 | 83 | 340 | 4.0 | 9.0 | 0.00 | 0.00 | 0.00 | 39 | 1018.9 |
| 20260901143041 | 83 | 333 | 5.0 | 10.0 | 0.00 | 0.00 | 0.00 | 38 | 1018.9 |
| 20260901141537 | 83 | 107 | 2.0 | 8.0 | 0.00 | 0.00 | 0.00 | 37 | 1019.0 |
| 20260901140036 | 82 | 52 | 5.0 | 9.0 | 0.00 | 0.00 | 0.00 | 38 | 1019.2 |
| 20260901134536 | 82 | 339 | 5.0 | 11.0 | 0.00 | 0.00 | 0.00 | 40 | 1019.2 |
| 20260901133042 | 81 | 26 | 3.0 | 9.0 | 0.00 | 0.00 | 0.00 | 39 | 1019.3 |
| 20260901131531 | 82 | 316 | 2.0 | 8.0 | 0.00 | 0.00 | 0.00 | 39 | 1019.4 |
| 20260901130029 | 81 | 5 | 6.0 | 11.0 | 0.00 | 0.00 | 0.00 | 39 | 1019.6 |
| 20260901124528 | 81 | 355 | 4.0 | 9.0 | 0.00 | 0.00 | 0.00 | 41 | 1019.8 |
| 20260901123027 | 81 | 99 | 3.0 | 10.0 | 0.00 | 0.00 | 0.00 | 39 | 1019.8 |
| 20260901121525 | 80 | 341 | 3.0 | 8.0 | 0.00 | 0.00 | 0.00 | 42 | 1019.9 |
| 20260901120022 | 80 | 292 | 1.0 | 9.0 | 0.00 | 0.00 | 0.00 | 42 | 1019.9 |
| 20260901114520 | 80 | 263 | 5.0 | 9.0 | 0.00 | 0.00 | 0.00 | 43 | 1020.0 |
| 20260901113018 | 79 | 351 | 4.0 | 10.0 | 0.00 | 0.00 | 0.00 | 44 | 1020.1 |
| 20260901111516 | 79 | 347 | 2.0 | 7.0 | 0.00 | 0.00 | 0.00 | 43 | 1020.3 |
| 20260901110014 | 79 | 342 | 3.0 | 9.0 | 0.00 | 0.00 | 0.00 | 46 | 1020.4 |
| 20260901104526 | 78 | 297 | 3.0 | 7.0 | 0.00 | 0.00 | 0.00 | 49 | 1020.5 |
| 20260901103010 | 78 | 302 | 4.0 | 6.0 | 0.00 | 0.00 | 0.00 | 51 | 1020.6 |
| 20260901101510 | 77 | 350 | 4.0 | 8.0 | 0.00 | 0.00 | 0.00 | 51 | 1020.9 |
| 20260901100005 | 77 | 319 | 4.0 | 9.0 | 0.00 | 0.00 | 0.00 | 55 | 1020.9 |
| 20260901094508 | 76 | 12 | 3.0 | 7.0 | 0.00 | 0.00 | 0.00 | 57 | 1021.0 |
| 20260901093105 | 76 | 5 | 2.0 | 7.0 | 0.00 | 0.00 | 0.00 | 56 | 1021.0 |
| 20260901091602 | 75 | 53 | 4.0 | 7.0 | 0.00 | 0.00 | 0.00 | 59 | 1021.1 |
| 20260901090052 | 74 | 360 | 3.0 | 4.0 | 0.00 | 0.00 | 0.00 | 60 | 1021.0 |
| 20260901084549 | 73 | 23 | 3.0 | 5.0 | 0.00 | 0.00 | 0.00 | 63 | 1021.1 |
| 20260901083044 | 72 | 18 | 4.0 | 7.0 | 0.00 | 0.00 | 0.00 | 65 | 1020.9 |
| 20260901081540 | 71 | 331 | 1.0 | 5.0 | 0.00 | 0.00 | 0.00 | 68 | 1021.0 |
| 20260901080036 | 69 | 355 | 2.0 | 5.0 | 0.00 | 0.00 | 0.00 | 69 | 1021.0 |
| 20260901074538 | 68 | 5 | 1.0 | 4.0 | 0.00 | 0.00 | 0.00 | 72 | 1020.9 |
| 20260901073027 | 66 | 29 | 1.0 | 4.0 | 0.00 | 0.00 | 0.00 | 74 | 1020.8 |
| 20260901071523 | 64 | 11 | 2.0 | 5.0 | 0.00 | 0.00 | 0.00 | 77 | 1020.8 |
| 20260901070018 | 61 | 42 | 0.0 | 3.0 | 0.00 | 0.00 | 0.00 | 84 | 1020.9 |
| 20260901064514 | 59 | 84 | 0.0 | 2.0 | 0.00 | 0.00 | 0.00 | 88 | 1020.8 |
| 20260901063008 | 57 | 56 | 0.0 | 0.0 | 0.00 | 0.00 | 0.00 | 91 | 1020.7 |
| 20260901061505 | 56 | 56 | 0.0 | 0.0 | 0.00 | 0.00 | 0.00 | 92 | 1020.7 |
| 20260901060105 | 55 | 56 | 0.0 | 0.0 | 0.00 | 0.00 | 0.00 | 92 | 1020.6 |
| 20260901054558 | 55 | 56 | 0.0 | 0.0 | 0.00 | 0.00 | 0.00 | 92 | 1020.5 |
| 20260901053108 | 55 | 56 | 0.0 | 0.0 | 0.00 | 0.00 | 0.00 | 93 | 1020.3 |
| 20260901051552 | 54 | 56 | 0.0 | 0.0 | 0.00 | 0.00 | 0.00 | 92 | 1020.3 |
| 20260901050050 | 55 | 56 | 0.0 | 0.0 | 0.00 | 0.00 | 0.00 | 91 | 1020.3 |
| 20260901044549 | 55 | 56 | 0.0 | 0.0 | 0.00 | 0.00 | 0.00 | 92 | 1020.2 |
| 20260901043107 | 55 | 56 | 0.0 | 0.0 | 0.00 | 0.00 | 0.00 | 91 | 1020.3 |
| 20260901041546 | 55 | 56 | 0.0 | 0.0 | 0.00 | 0.00 | 0.00 | 90 | 1020.3 |
| 20260901040050 | 56 | 56 | 0.0 | 3.0 | 0.00 | 0.00 | 0.00 | 90 | 1020.2 |
| 20260901034553 | 56 | 56 | 1.0 | 3.0 | 0.00 | 0.00 | 0.00 | 90 | 1020.3 |
| 20260901033100 | 56 | 355 | 0.0 | 0.0 | 0.00 | 0.00 | 0.00 | 90 | 1020.3 |
| 20260901031602 | 57 | 355 | 0.0 | 0.0 | 0.00 | 0.00 | 0.00 | 89 | 1020.4 |
| 20260901030044 | 57 | 355 | 0.0 | 0.0 | 0.00 | 0.00 | 0.00 | 89 | 1020.5 |
| 20260901024538 | 57 | 355 | 0.0 | 0.0 | 0.00 | 0.00 | 0.00 | 89 | 1020.5 |
| 20260901023036 | 57 | 355 | 0.0 | 0.0 | 0.00 | 0.00 | 0.00 | 88 | 1020.5 |
| 20260901021537 | 57 | 355 | 0.0 | 0.0 | 0.00 | 0.00 | 0.00 | 88 | 1020.4 |
| 20260901020037 | 57 | 355 | 0.0 | 0.0 | 0.00 | 0.00 | 0.00 | 88 | 1020.4 |
| 20260901014535 | 57 | 355 | 0.0 | 0.0 | 0.00 | 0.00 | 0.00 | 87 | 1020.4 |
| 20260901013040 | 57 | 355 | 0.0 | 0.0 | 0.00 | 0.00 | 0.00 | 87 | 1020.5 |
| 20260901011534 | 58 | 355 | 0.0 | 0.0 | 0.00 | 0.00 | 0.00 | 87 | 1020.5 |
| 20260901010035 | 58 | 355 | 0.0 | 0.0 | 0.00 | 0.00 | 0.00 | 86 | 1020.4 |
| 20260901004529 | 58 | 355 | 0.0 | 0.0 | 0.00 | 0.00 | 0.00 | 85 | 1020.5 |
| 20260901003027 | 59 | 355 | 0.0 | 0.0 | 0.00 | 0.00 | 0.00 | 85 | 1020.5 |
| 20260901001536 | 59 | 355 | 0.0 | 0.0 | 0.00 | 0.00 | 0.00 | 83 | 1020.6 |
| 20260901000030 | 59 | 355 | 0.0 | 0.0 | 0.00 | 0.00 | 0.00 | 82 | 1020.5 |
| 20260831234525 | 60 | 355 | 0.0 | 0.0 | 0.00 | 0.00 | 0.00 | 82 | 1020.6 |
| 20260831233021 | 60 | 355 | 0.0 | 2.0 | 0.00 | 0.00 | 0.00 | 81 | 1020.5 |
| 20260831231519 | 60 | 89 | 0.0 | 2.0 | 0.00 | 0.00 | 0.00 | 80 | 1020.4 |
| 20260831230017 | 61 | 79 | 0.0 | 2.0 | 0.00 | 0.00 | 0.00 | 78 | 1020.4 |
| 20260831224515 | 61 | 79 | 0.0 | 2.0 | 0.00 | 0.00 | 0.00 | 77 | 1020.4 |
| 20260831223012 | 62 | 90 | 0.0 | 3.0 | 0.00 | 0.00 | 0.00 | 75 | 1020.4 |
| 20260831221510 | 63 | 108 | 1.0 | 3.0 | 0.00 | 0.00 | 0.00 | 74 | 1020.5 |
| 20260831220007 | 63 | 19 | 0.0 | 0.0 | 0.00 | 0.00 | 0.00 | 72 | 1020.4 |
| 20260831214507 | 64 | 19 | 0.0 | 2.0 | 0.00 | 0.00 | 0.00 | 70 | 1020.4 |
| 20260831213010 | 65 | 19 | 1.0 | 3.0 | 0.00 | 0.00 | 0.00 | 68 | 1020.4 |
| 20260831211505 | 65 | 5 | 1.0 | 3.0 | 0.00 | 0.00 | 0.00 | 67 | 1020.4 |
| 20260831210004 | 66 | 5 | 1.0 | 3.0 | 0.00 | 0.02 | 0.00 | 66 | 1020.3 |
| 20260831204503 | 67 | 23 | 2.0 | 3.0 | 0.00 | 0.02 | 0.00 | 64 | 1020.2 |
| 20260831203002 | 67 | 355 | 2.0 | 4.0 | 0.00 | 0.02 | 0.00 | 63 | 1020.1 |
| 20260831201603 | 67 | 355 | 1.0 | 4.0 | 0.00 | 0.02 | 0.00 | 66 | 1020.0 |
| 20260831200058 | 69 | 321 | 0.0 | 1.0 | 0.00 | 0.02 | 0.00 | 63 | 1019.8 |
| 20260831194612 | 70 | 321 | 0.0 | 2.0 | 0.00 | 0.03 | 0.00 | 61 | 1019.7 |
| 20260831193056 | 71 | 321 | 0.0 | 2.0 | 0.00 | 0.03 | 0.00 | 54 | 1019.5 |
| 20260831191602 | 72 | 316 | 1.0 | 5.0 | 0.00 | 0.03 | 0.00 | 52 | 1019.5 |
| 20260831190145 | 73 | 300 | 1.0 | 4.0 | 0.00 | 0.03 | 0.00 | 51 | 1019.2 |
| 20260831184553 | 74 | 313 | 1.0 | 4.0 | 0.00 | 0.03 | 0.00 | 50 | 1019.1 |
| 20260831183046 | 74 | 317 | 2.0 | 7.0 | 0.00 | 0.03 | 0.00 | 49 | 1018.9 |
| 20260831181552 | 75 | 317 | 3.0 | 9.0 | 0.00 | 0.03 | 0.00 | 48 | 1018.8 |
| 20260831180044 | 76 | 284 | 3.0 | 9.0 | 0.00 | 0.03 | 0.00 | 48 | 1018.7 |
| 20260831174544 | 76 | 333 | 5.0 | 10.0 | 0.00 | 0.03 | 0.00 | 48 | 1018.6 |